RH
100 100 97 94 73 41 25 21 17 13 13 13 12 12 10 10 9 9 8 8 7 7 7 6 6 6 5 6 5 7 8 7 10 20 30 20 9 7 12 17 14 11 9 27 39 34 39 40 33 32 34 34 30 30 26 23 22 31 53 57 44 41 42 34 26 31 25 17 15 15 17 18 21 21 20 22 23 29 31 31 35 36 38 42 46 48 48 50
99 101 99 83 52 29 22 18 15 14 13 13 12 12 10 10 9 8 9 7 8 7 6 7 6 6 7 5 6 10 12 16 26 35 24 8 7 7 9 14 15 13 13 29 40 35 35 35 32 30 33 35 29 26 27 24 20 32 50 49 41 34 28 24 26 28 24 20 16 15 17 16 17 18 19 21 24 26 27 31 36 41 42 42 44 46 48 50
99 101 89 63 38 26 21 16 15 14 13 13 12 11 10 10 9 8 8 7 8 7 7 7 5 7 6 6 9 10 27 45 44 34 18 7 11 7 6 12 15 15 13 20 28 29 30 30 29 29 33 34 28 24 25 23 19 27 41 48 40 28 25 22 22 25 22 19 17 15 15 15 15 15 17 20 24 25 28 37 44 48 48 45 44 44 46 48
101 94 66 41 28 20 17 15 15 13 12 12 11 10 10 9 9 8 8 7 7 6 7 7 7 8 5 8 10 13 42 55 34 21 16 11 9 7 9 13 15 14 11 12 17 23 25 25 25 26 31 32 28 23 22 19 18 23 30 38 32 23 26 21 18 22 19 17 17 15 14 15 14 15 16 18 26 27 30 40 45 48 47 45 44 43 45 45
100 77 45 31 23 17 16 14 13 12 12 11 10 10 9 8 8 7 7 7 6 6 6 7 9 8 6 10 12 27 48 36 16 16 15 12 11 11 12 11 12 11 9 13 17 18 19 21 21 23 28 29 25 21 19 15 14 21 23 24 21 19 22 17 16 20 19 18 18 15 14 14 12 13 14 18 27 26 30 39 39 42 44 43 43 43 44 44
84 55 37 31 22 18 16 13 12 11 11 10 10 9 9 8 7 7 7 6 6 7 6 8 10 8 8 10 20 40 39 15 11 15 11 11 11 10 10 7 9 9 11 18 23 20 17 18 19 22 24 23 21 19 17 12 12 18 19 18 17 16 16 14 13 16 18 18 19 17 14 14 12 13 13 17 22 22 29 36 36 39 40 41 42 43 44 45
62 44 36 30 23 20 16 13 12 10 11 10 9 9 8 8 7 7 6 5 7 7 8 9 9 9 9 16 37 52 37 16 11 9 10 11 8 8 8 7 8 10 17 24 25 23 20 19 20 20 19 19 18 16 14 12 11 14 15 17 17 15 13 14 13 13 16 18 19 17 14 15 14 13 14 16 19 24 31 34 36 38 38 39 41 43 44 46
70 57 35 27 23 18 16 15 13 11 11 9 9 9 7 8 6 6 6 5 7 7 10 9 8 12 18 30 41 38 30 22 10 5 11 10 8 10 8 9 9 11 23 27 23 22 23 22 20 19 17 17 16 15 14 12 12 12 12 13 13 13 12 13 13 12 15 16 17 17 17 16 14 14 16 18 22 28 33 34 37 38 38 40 42 44 45 48
81 62 35 28 21 17 17 15 14 11 10 9 8 8 7 7 6 6 5 5 8 8 9 10 9 17 37 56 46 24 16 12 6 7 12 10 10 10 8 11 10 12 23 25 22 22 23 23 19 17 16 14 12 13 13 13 14 11 10 10 9 11 12 12 13 12 13 13 16 18 16 15 14 14 15 19 24 29 32 35 38 39 40 41 41 43 46 48
78 58 36 28 18 17 18 15 15 11 10 9 7 8 7 6 6 5 5 6 8 8 9 10 13 27 54 67 49 25 12 5 8 11 11 11 10 9 10 11 12 15 20 21 22 22 22 21 16 14 13 12 11 11 12 13 13 10 9 9 7 8 9 11 12 12 12 12 15 17 16 15 14 15 16 20 24 27 32 37 37 38 41 41 40 42 45 46
84 62 37 25 21 19 18 16 15 11 10 9 7 7 6 6 6 5 7 8 8 8 9 11 20 43 65 65 45 23 9 5 11 13 11 12 11 10 11 13 15 16 17 17 18 19 20 18 14 12 12 11 10 10 10 11 11 10 9 8 8 7 7 10 11 11 11 12 15 15 16 16 15 16 16 19 23 25 31 36 36 38 40 39 39 43 46 45
94 74 43 29 26 21 19 17 14 12 11 8 7 6 5 5 5 5 9 9 9 8 9 17 34 57 69 65 49 22 5 5 8 9 11 14 15 13 12 13 14 14 14 13 14 16 16 15 13 12 11 10 10 11 10 9 9 9 9 9 9 7 7 9 9 10 10 12 14 14 20 21 17 17 15 16 21 24 29 33 34 37 39 39 39 43 46 43
91 70 47 36 31 24 21 17 14 13 10 9 8 6 5 4 4 7 11 11 10 7 11 26 46 67 71 57 37 14 4 7 6 7 10 13 15 14 13 13 13 14 13 11 11 12 12 12 11 11 11 10 10 9 8 8 8 9 9 9 9 9 10 9 9 10 9 11 11 15 28 28 18 16 14 13 18 23 28 31 32 34 36 37 39 44 44 41
76 58 46 40 34 27 22 17 15 13 10 9 7 6 5 4 5 8 14 17 14 12 24 40 53 73 77 50 22 8 8 9 7 10 9 9 11 10 12 11 10 12 12 11 11 11 11 10 9 10 9 8 8 7 7 7 7 8 9 9 10 11 12 8 8 10 9 11 9 15 31 30 19 17 15 13 17 23 28 30 31 32 33 34 38 43 42 40
62 54 48 42 35 29 23 18 15 12 11 9 7 6 5 5 7 11 20 22 18 21 37 53 60 72 72 47 23 11 12 16 14 11 9 9 9 8 10 9 9 9 9 11 11 11 11 9 9 9 8 7 7 7 8 8 7 8 10 12 11 11 12 8 7 10 9 10 9 15 29 28 20 18 15 13 16 21 25 28 28 30 32 31 36 41 39 38
60 54 47 42 37 30 23 18 15 11 10 9 7 6 6 8 11 17 23 23 25 30 46 64 68 69 59 38 25 15 16 23 19 12 10 10 10 8 9 8 8 8 7 9 9 10 10 9 10 8 7 7 7 8 9 11 10 9 10 13 12 11 11 9 9 9 10 11 10 15 26 27 21 19 16 14 15 18 22 24 25 28 30 30 35 38 37 37
67 57 46 42 37 31 25 18 14 11 10 8 8 8 7 11 19 26 24 26 35 37 43 51 54 59 48 29 24 18 15 16 14 13 11 10 9 8 8 8 8 8 7 8 8 8 9 10 11 10 9 8 8 9 11 14 14 12 11 12 11 10 11 11 11 11 10 12 12 15 22 24 22 19 17 15 15 18 19 21 22 25 28 29 32 35 36 37
77 64 47 40 35 32 26 19 14 11 10 9 11 13 13 20 32 36 30 36 50 50 45 41 42 48 38 28 29 22 13 11 11 12 10 9 9 8 8 8 7 7 8 9 9 9 9 10 11 12 12 10 9 9 13 15 13 12 12 12 11 10 11 10 12 11 10 13 14 15 20 22 20 18 18 17 15 18 19 20 21 23 27 28 30 34 35 37
85 70 49 39 33 31 27 19 14 11 12 13 14 17 23 33 42 44 41 47 59 58 49 44 44 36 20 19 23 18 13 11 9 10 9 9 9 8 8 7 7 8 10 12 11 10 10 12 13 15 14 12 10 9 10 11 10 11 10 10 11 10 11 9 10 11 10 13 15 16 18 19 20 18 18 18 16 18 20 20 20 22 26 26 28 33 35 37
82 69 51 39 31 30 27 21 14 10 14 18 23 29 30 29 33 37 37 40 45 42 35 35 37 27 15 13 14 14 13 10 9 10 9 8 8 8 8 7 9 10 12 13 12 10 10 14 15 15 13 11 10 8 8 8 8 9 9 9 9 10 10 9 9 10 10 13 15 16 17 17 19 19 18 19 18 20 21 21 21 22 25 25 26 32 35 36
74 66 52 41 33 29 26 22 14 12 18 25 38 46 34 18 19 22 21 22 22 21 21 21 22 23 20 18 16 17 15 11 10 9 9 8 8 9 9 9 11 14 14 12 11 10 11 15 15 12 11 9 8 8 7 7 8 9 9 10 9 10 10 8 10 11 10 14 17 17 17 18 19 20 19 19 20 20 21 23 22 22 25 26 25 29 34 35
75 65 51 45 38 27 24 23 14 15 24 31 43 46 29 17 16 15 15 19 16 12 13 11 10 13 14 15 17 17 16 16 12 9 9 9 8 10 9 9 13 15 13 11 12 12 13 14 12 10 9 8 7 7 7 7 8 8 9 10 11 11 9 9 9 10 11 14 18 18 18 20 19 19 20 19 21 22 22 22 23 23 25 27 26 27 32 35
79 63 50 49 42 30 24 19 15 23 28 29 34 29 16 14 14 12 15 19 17 12 11 11 10 9 8 9 10 10 13 14 13 10 8 9 9 9 9 10 12 14 12 12 13 14 15 13 10 8 8 8 7 6 7 7 8 8 9 11 12 10 9 12 11 9 11 13 16 18 19 20 19 20 22 19 21 24 23 22 22 23 25 26 26 25 29 34
66 56 53 51 46 36 22 17 23 26 25 24 25 19 14 14 13 13 16 17 17 13 9 9 9 9 8 6 5 7 9 10 11 10 8 9 9 8 9 10 11 13 12 11 11 12 13 10 8 8 7 8 8 7 7 7 8 9 9 10 10 9 9 11 10 9 10 12 14 17 22 24 21 23 25 21 22 24 23 22 22 24 25 25 25 24 27 31
56 55 56 52 52 43 21 22 32 26 23 25 21 18 17 15 13 14 17 21 21 15 10 8 7 7 7 5 5 5 6 8 9 9 8 8 9 8 9 8 10 12 11 10 11 12 11 8 7 8 7 7 7 7 7 7 8 8 8 9 8 8 8 9 8 9 14 17 14 15 27 32 25 26 28 24 25 25 24 23 23 26 27 26 26 26 26 28
54 53 55 54 54 47 31 26 31 33 35 29 21 21 21 18 17 16 19 28 28 17 11 9 7 7 6 6 5 5 6 7 6 6 7 8 8 8 8 8 9 11 11 10 10 11 9 7 6 7 7 7 7 7 6 5 7 8 7 7 7 8 8 9 8 9 18 23 16 13 28 37 29 26 28 26 27 27 25 25 23 26 29 26 26 27 26 27
54 52 54 55 51 58 63 49 41 49 43 27 21 24 23 21 19 16 24 36 31 17 11 9 7 6 6 5 4 5 8 7 6 6 6 7 8 7 8 9 9 10 9 9 12 11 8 7 7 6 6 6 6 7 5 5 6 7 6 6 8 8 8 8 8 10 15 19 17 13 22 35 33 27 25 25 27 27 26 26 24 27 29 26 25 27 27 27
55 52 53 54 49 54 69 69 67 63 38 22 25 26 24 24 19 17 31 41 27 10 9 8 7 6 4 5 4 5 7 5 6 6 5 6 6 7 9 8 9 10 9 10 14 11 7 8 7 6 6 6 6 6 5 5 5 6 5 5 7 7 8 8 8 10 11 14 21 18 16 29 36 30 24 22 26 29 27 25 25 27 29 26 25 26 28 28
53 54 52 53 48 38 47 66 69 52 25 18 25 24 23 22 18 20 35 42 22 6 9 9 8 8 4 5 5 4 5 5 6 6 4 5 5 6 9 8 8 9 9 10 12 10 8 8 7 6 6 6 5 5 4 4 4 4 5 5 6 6 7 8 8 11 11 15 25 23 17 26 35 33 28 25 25 27 28 26 25 27 27 26 25 25 28 29
54 56 49 53 55 45 54 60 43 27 19 21 26 24 22 20 21 29 40 38 17 6 10 9 9 9 5 6 6 5 5 5 5 5 5 5 5 5 6 7 7 8 9 9 9 10 7 7 7 6 6 5 5 5 4 4 4 4 4 5 6 6 7 10 11 12 13 18 25 21 15 21 31 32 28 27 24 22 26 27 26 26 27 27 25 24 26 29
56 54 48 54 55 59 76 60 24 18 21 22 29 28 23 21 24 33 36 24 11 9 11 11 10 8 6 7 6 6 5 5 5 5 6 6 5 6 6 8 9 9 11 10 10 9 7 8 8 6 6 5 5 4 4 4 3 4 4 5 7 8 10 12 14 15 17 20 21 17 12 15 25 31 26 23 21 19 22 26 26 25 25 27 25 23 24 28
56 53 46 42 41 57 74 47 13 17 24 27 38 36 28 28 26 29 26 14 11 13 10 11 11 7 7 7 6 6 6 6 6 5 6 6 6 7 7 9 11 12 14 13 11 10 9 8 7 7 7 6 5 5 5 5 4 4 5 7 10 12 13 14 16 19 20 20 16 12 11 12 19 27 24 20 20 18 18 21 22 22 22 24 25 23 22 26
54 52 40 30 39 55 54 33 16 22 33 39 41 34 31 35 31 22 17 13 13 11 8 10 10 8 9 8 7 7 6 7 7 6 6 7 7 7 7 8 9 11 14 13 12 13 12 10 7 7 7 6 6 6 6 6 5 5 5 7 13 14 16 18 18 18 20 21 15 9 11 13 15 19 20 18 17 16 16 17 19 21 21 21 23 22 21 23
51 48 38 30 40 42 34 34 32 35 47 46 40 37 36 39 33 19 14 14 12 9 9 10 8 9 10 9 9 8 8 10 7 7 8 8 9 9 7 8 8 9 11 12 12 13 15 16 11 8 8 7 7 6 7 6 4 5 3 5 11 12 14 17 18 18 20 22 17 10 12 15 16 19 18 16 15 15 16 15 17 20 20 21 22 22 21 22
48 44 44 44 45 35 30 37 35 41 51 43 42 48 42 35 26 17 15 13 10 10 10 9 9 10 9 9 10 8 9 11 8 7 9 9 11 10 8 9 8 9 10 12 13 11 14 16 10 8 7 6 7 7 6 6 5 5 4 4 7 9 11 15 17 16 16 19 18 13 14 15 15 17 14 12 14 15 15 15 16 19 20 21 23 22 21 22
53 46 49 56 49 33 35 39 35 43 46 38 50 58 44 30 20 15 15 11 10 11 10 9 10 10 11 10 9 9 9 10 9 8 9 10 11 9 9 9 8 9 9 11 12 10 12 13 8 8 8 6 7 7 6 7 6 6 5 5 5 5 8 12 15 14 13 19 18 13 15 15 13 13 10 9 14 16 16 15 17 20 21 23 24 23 23 24
71 64 63 62 43 26 32 38 37 43 40 40 57 60 40 25 17 13 13 10 11 11 11 14 11 9 12 10 9 9 9 10 10 9 9 11 11 9 9 8 8 8 8 9 11 9 11 12 8 7 8 7 6 7 7 6 6 6 5 5 4 5 6 9 12 13 15 20 17 12 15 17 18 19 13 9 14 18 17 16 18 21 22 23 25 25 25 26
86 79 72 56 33 23 30 33 35 39 39 45 60 57 41 30 22 16 14 14 15 15 17 19 14 10 10 10 10 8 9 11 10 9 11 11 11 10 8 8 8 8 7 8 10 9 9 12 10 7 7 8 5 6 8 6 4 5 5 4 5 7 8 8 11 14 18 19 16 14 16 17 20 21 15 10 14 19 17 15 18 21 20 20 23 26 27 27
79 71 58 34 21 26 28 28 29 35 43 54 60 53 40 32 26 21 19 19 18 19 20 19 15 13 11 10 10 7 8 10 10 10 11 11 11 10 8 9 8 7 7 7 9 8 8 12 12 8 6 7 7 7 9 8 6 5 5 5 5 7 9 9 8 10 17 20 17 18 18 18 22 22 15 12 12 15 18 17 17 19 18 17 21 25 27 27
63 61 50 25 22 30 27 27 32 39 50 56 53 46 38 32 27 22 19 19 18 18 18 17 15 14 13 11 9 8 8 8 9 10 10 10 10 9 9 9 8 8 7 6 7 8 8 12 14 11 7 7 9 9 8 9 8 6 7 7 6 6 7 8 8 7 12 17 18 20 20 19 21 18 14 16 14 11 15 17 17 18 16 16 20 23 25 26
59 65 54 27 28 35 30 33 38 42 48 45 40 37 35 31 27 23 20 18 19 18 17 17 16 14 14 13 11 10 9 8 8 9 9 9 9 9 8 8 8 8 7 7 8 7 8 11 14 12 9 9 9 8 7 7 7 7 7 7 7 8 7 8 12 9 7 10 13 17 23 23 19 13 11 17 19 13 13 17 17 17 16 16 20 22 23 25
64 68 51 32 37 38 35 39 39 40 45 40 35 32 30 28 24 21 20 18 18 19 18 19 19 17 15 13 12 10 9 9 8 8 9 8 7 8 7 7 8 7 7 8 7 7 9 10 13 13 10 9 8 6 7 6 6 6 7 7 7 7 7 9 15 16 9 8 10 13 21 24 17 14 13 14 18 17 14 16 17 15 14 17 21 22 23 25
66 63 49 41 42 38 42 49 41 38 41 36 31 27 25 24 21 19 20 18 18 17 18 19 19 19 17 14 13 11 9 9 7 6 8 8 7 6 5 6 7 7 9 8 7 9 12 11 14 16 12 10 9 6 6 6 6 7 7 6 7 7 6 6 13 19 14 9 11 14 20 19 12 16 22 18 19 19 13 14 16 13 13 15 20 24 24 26
65 61 52 47 43 38 48 55 45 41 39 32 26 23 22 21 19 20 19 17 17 16 16 18 17 18 18 15 13 12 10 11 10 7 7 7 7 6 5 5 6 6 8 9 8 9 12 13 16 19 18 16 15 13 11 8 6 8 8 6 6 6 5 4 7 12 15 15 14 15 22 23 14 12 16 15 16 17 14 15 15 15 15 12 17 25 27 27
68 62 52 42 36 35 42 42 37 37 33 27 25 21 20 20 16 17 19 19 18 17 18 20 17 15 16 17 19 17 12 11 10 9 8 8 7 6 5 5 5 6 6 11 13 9 10 14 15 18 21 19 19 20 17 13 8 8 8 7 6 5 5 7 6 8 18 22 18 16 21 26 19 10 7 8 11 13 16 17 14 17 18 13 19 29 29 29
74 71 58 44 36 35 37 31 30 36 35 38 43 34 27 28 24 23 27 28 24 20 23 26 25 25 27 30 35 33 27 23 16 10 8 7 6 6 8 8 6 5 10 20 21 10 9 16 14 16 20 18 20 20 16 14 11 9 9 8 8 7 5 7 8 8 14 19 21 25 25 23 21 15 9 8 7 10 19 18 13 21 26 22 27 34 31 32
81 78 60 55 56 50 45 39 39 48 51 53 58 48 38 39 36 30 29 29 26 23 25 27 29 35 39 39 42 41 40 40 34 25 21 21 21 21 21 19 13 10 17 25 23 14 15 17 15 16 17 16 18 18 12 12 11 9 10 9 8 8 6 8 9 9 11 12 15 24 26 23 24 19 14 14 11 12 23 23 16 24 34 32 33 35 31 32
78 73 51 53 66 63 56 53 50 53 53 50 49 45 42 42 40 37 34 29 27 26 28 31 31 36 39 39 43 47 47 48 46 42 40 40 40 38 33 28 20 18 20 18 16 18 21 20 15 14 14 12 12 12 10 11 11 8 8 9 8 9 7 9 9 10 14 15 13 17 23 25 24 17 14 20 20 18 24 27 21 21 29 34 36 36 33 31
68 68 55 54 67 68 60 56 53 52 52 50 49 46 44 42 37 34 32 29 30 29 31 38 38 37 39 37 41 49 51 52 51 47 44 44 44 44 43 38 29 25 25 19 14 16 20 22 17 12 13 12 9 10 10 9 10 9 8 8 8 8 8 8 9 8 11 15 13 14 22 26 21 11 6 12 20 22 22 24 21 16 23 35 38 35 34 32
69 72 73 73 77 72 61 55 54 54 50 51 54 48 44 45 43 38 32 30 33 32 31 40 44 41 40 40 41 44 43 44 46 43 41 45 47 47 46 43 35 30 30 26 19 13 16 24 21 12 15 16 9 9 10 8 10 10 9 9 8 7 8 7 8 7 8 13 13 13 20 25 22 14 7 8 16 20 18 18 19 19 27 38 38 33 34 36
69 73 83 91 88 74 67 63 57 58 57 53 55 53 47 50 50 48 43 31 28 32 34 39 44 42 41 42 42 40 36 35 38 37 36 41 44 43 42 40 37 36 34 30 25 18 15 22 20 15 22 23 14 12 11 9 11 10 10 11 9 8 9 7 7 8 8 12 14 15 17 20 20 17 11 9 12 14 16 20 22 22 25 31 35 37 39 40
72 79 86 96 96 79 70 67 59 63 63 53 55 58 51 46 41 45 56 45 29 32 35 34 41 50 55 55 47 38 34 32 33 31 31 34 36 35 36 35 33 35 34 30 29 24 17 20 23 22 27 25 16 14 12 10 13 14 12 12 11 11 11 10 8 8 7 7 11 17 21 22 23 19 13 11 9 7 11 19 22 21 21 22 25 31 35 37
Wind_Speed
23 23 23 23 23 24 25 25 25 25 24 24 24 24 24 24 25 24 25 24 25 25 25 26 26 27 26 25 24 24 25 24 25 19 16 25 28 22 20 18 11 10 17 14 13 13 13 13 15 18 14 9 6 5 8 8 4 2 2 1 2 3 3 4 3 6 4 3 6 7 8 8 8 8 8 11 13 14 13 12 14 13 15 19 23 30 32 31
24 24 23 23 25 27 26 26 26 26 26 26 26 26 25 25 25 26 26 26 26 25 26 26 26 26 26 25 23 22 22 21 21 19 24 29 28 26 21 22 18 11 15 17 17 16 12 11 14 14 10 6 5 7 8 7 6 3 3 2 2 5 5 7 9 7 6 1 4 8 11 9 8 8 7 9 13 14 11 12 16 17 18 21 27 31 30 31
24 24 24 25 28 28 27 27 26 26 26 27 27 27 26 26 26 27 27 27 26 26 26 27 26 25 25 24 21 18 17 15 11 15 21 17 14 23 23 23 22 16 17 19 19 19 16 14 16 13 9 7 6 9 10 8 8 4 5 2 5 7 6 8 11 7 4 7 5 6 10 10 8 7 7 9 13 13 10 13 16 18 20 21 23 27 30 30
24 24 26 28 29 28 28 28 27 27 27 28 28 27 27 27 28 28 28 27 27 27 27 26 26 25 25 23 18 15 11 9 5 7 11 4 9 16 19 21 21 18 18 20 19 19 20 17 16 13 9 8 8 10 10 8 7 3 5 5 7 9 8 14 8 13 7 9 3 4 7 10 9 6 7 12 12 10 11 16 19 20 22 22 21 22 26 26
24 25 28 29 29 29 29 28 28 28 28 29 29 29 29 29 29 29 28 28 28 27 27 26 26 25 24 21 15 9 6 4 1 2 2 4 9 13 15 15 16 17 18 19 16 17 20 16 13 12 9 7 8 8 9 11 8 5 8 11 11 11 8 9 3 15 12 3 0 3 5 9 9 6 10 15 11 9 13 19 22 22 21 22 21 20 22 21
25 27 29 30 29 29 29 29 29 29 30 30 30 30 30 30 30 30 29 29 29 27 26 25 25 25 23 18 9 3 1 2 5 1 7 9 11 13 12 11 11 14 17 16 14 14 15 14 12 9 8 7 9 9 9 11 8 6 9 13 14 11 6 2 4 9 14 8 5 3 6 8 7 5 9 13 10 12 18 22 23 22 21 23 22 20 19 19
28 29 31 30 30 30 30 31 31 31 31 31 31 32 31 31 31 30 30 30 29 27 25 24 25 25 21 13 3 2 2 7 19 15 8 9 12 13 11 11 12 13 15 14 12 11 11 13 12 8 7 7 9 10 12 12 10 9 7 11 15 11 8 7 7 4 12 13 8 4 4 6 8 4 3 7 10 18 22 22 22 21 22 23 20 19 19 19
28 29 31 31 30 30 31 32 32 32 32 32 33 33 33 33 32 31 31 31 29 26 24 23 24 22 16 8 0 3 4 14 25 20 16 17 14 11 11 12 13 15 16 16 13 11 10 12 12 9 7 8 8 10 12 12 11 11 10 12 13 12 12 11 9 6 8 11 10 8 6 6 8 5 6 13 18 22 22 21 22 21 20 20 19 19 18 17
28 29 31 32 31 32 33 33 33 33 34 34 34 34 34 34 33 33 32 31 28 25 23 23 22 16 9 4 3 3 8 18 20 16 21 26 20 13 13 13 14 17 16 17 16 13 10 10 11 10 8 9 10 11 11 9 8 9 12 11 8 10 13 13 11 9 8 8 13 12 8 7 8 6 6 14 21 22 22 21 21 20 19 18 17 18 17 17
28 30 32 33 33 34 35 35 35 35 35 35 35 35 35 35 34 33 33 31 26 24 22 21 18 10 4 2 3 4 12 19 15 15 21 25 22 16 17 14 16 18 13 14 15 14 11 10 10 9 8 8 9 10 11 10 8 8 10 9 6 7 10 12 12 12 10 8 14 12 8 9 9 7 4 13 21 22 23 21 20 19 18 18 16 16 16 16
28 30 33 35 35 35 36 36 36 36 36 36 36 36 36 35 35 34 32 29 26 23 20 18 14 5 2 3 3 5 12 14 9 16 17 21 19 15 17 15 16 18 13 11 13 17 16 15 12 6 6 6 8 10 10 13 12 12 12 10 9 9 7 11 12 11 8 9 15 12 10 10 9 6 6 15 20 21 22 21 19 17 16 16 16 15 13 13
28 30 35 36 36 36 37 37 38 38 38 38 37 37 36 35 35 33 31 28 26 22 17 14 8 1 2 4 8 17 18 15 14 12 12 20 20 15 14 14 18 19 15 11 12 19 20 20 16 9 6 4 7 8 7 11 13 12 11 10 11 13 9 7 9 6 4 8 16 14 10 9 8 6 11 17 18 20 22 20 19 17 15 14 14 13 11 12
29 33 37 38 37 38 38 38 38 39 39 39 39 38 37 35 34 31 30 28 25 19 13 11 5 3 2 3 13 26 26 22 22 21 18 18 19 17 13 14 18 20 19 15 14 20 23 23 18 11 9 6 6 5 5 8 10 11 10 7 8 9 8 5 7 7 5 7 16 13 7 7 7 8 13 15 16 21 20 17 16 15 14 13 12 12 12 12
33 37 39 38 39 39 39 39 40 40 40 40 40 39 38 35 32 29 29 27 21 12 9 8 3 5 3 7 16 26 28 25 23 23 22 19 18 17 16 16 17 17 20 20 19 19 21 23 17 9 8 8 6 7 8 7 6 8 8 5 5 4 5 8 6 11 9 9 14 10 5 7 7 8 15 14 16 21 18 17 16 13 13 12 12 13 13 11
37 39 39 39 40 40 40 41 41 41 41 41 41 41 38 33 30 28 27 21 13 7 7 4 6 6 3 9 18 25 24 23 25 30 26 22 21 15 17 19 17 18 18 18 18 17 17 16 12 7 6 7 7 7 7 5 5 5 6 4 4 3 6 12 9 12 9 7 13 10 4 7 6 8 15 13 13 19 17 16 16 14 15 12 11 13 13 11
38 39 40 41 40 41 41 41 41 42 42 42 42 40 35 32 30 26 22 15 8 7 6 2 9 9 4 6 12 18 13 14 21 30 30 28 25 16 17 18 17 19 18 18 17 15 16 12 6 6 6 6 6 6 4 4 5 5 5 5 5 6 7 10 6 10 7 4 10 9 4 5 5 6 14 15 13 17 17 16 17 15 16 13 11 12 12 10
38 39 40 41 41 42 42 42 42 41 42 43 41 37 34 30 23 17 11 5 4 8 9 4 6 7 7 10 10 13 11 16 17 21 26 28 26 17 15 12 11 15 17 17 17 13 11 8 5 5 6 6 5 5 4 5 5 5 5 5 7 8 8 6 4 8 9 8 7 7 7 6 6 8 13 16 14 15 15 15 16 14 14 13 10 12 12 11
36 39 41 41 41 43 43 42 42 41 43 42 37 36 32 21 10 3 2 6 6 5 7 7 5 3 7 9 7 9 12 15 16 18 22 25 24 20 15 10 9 12 12 11 12 10 7 5 5 4 5 6 6 6 6 7 7 7 7 5 7 9 8 7 5 7 10 12 8 8 8 8 10 10 12 16 14 13 15 15 15 14 15 14 11 13 12 12
35 38 42 41 41 43 43 43 41 41 43 39 34 31 20 7 4 4 6 8 6 1 4 4 6 4 5 6 9 12 13 15 15 15 17 20 22 20 16 12 10 10 9 6 7 9 6 4 5 6 6 8 9 9 9 9 10 12 11 8 8 7 8 11 7 9 11 10 8 9 9 9 12 11 10 15 14 12 14 14 13 13 14 14 12 12 13 13
36 39 41 41 42 42 43 43 40 39 41 38 34 25 9 3 4 1 3 5 5 8 9 8 10 10 11 10 12 18 17 14 13 11 13 16 17 14 11 11 10 9 8 6 7 8 7 5 7 9 9 9 11 12 12 12 13 14 13 10 9 7 8 11 8 12 13 9 8 9 9 9 11 12 11 13 13 12 13 14 13 13 13 14 13 13 14 14
38 39 40 43 43 42 43 42 39 37 34 30 24 12 5 6 5 4 6 7 11 12 16 18 15 16 17 15 19 20 13 6 7 8 14 18 15 11 8 9 9 7 7 8 8 7 8 8 10 11 11 12 12 13 14 15 15 14 13 10 9 8 8 10 8 14 14 9 8 11 10 8 10 12 12 12 12 11 12 13 13 14 15 14 14 15 15 13
37 37 41 43 43 43 43 42 39 32 24 19 13 5 6 9 7 10 11 9 12 12 17 20 19 20 20 21 30 25 12 9 9 8 15 18 11 8 8 9 8 6 8 9 7 6 9 10 11 12 12 13 13 13 15 16 15 12 10 9 9 7 7 9 7 12 13 7 7 12 10 7 8 12 13 12 10 9 11 13 13 14 14 15 15 14 14 13
35 38 42 42 44 45 41 42 36 21 18 18 14 11 12 14 14 16 11 8 14 12 15 19 19 19 19 20 28 25 14 12 11 10 16 16 9 8 8 9 9 7 9 11 9 7 7 9 12 13 12 13 14 13 13 13 12 10 9 8 8 9 8 7 5 8 12 9 8 11 9 6 7 9 12 13 10 7 8 11 12 13 14 15 17 15 14 15
37 40 42 41 45 43 42 42 25 15 25 27 18 15 15 18 18 19 10 5 12 9 13 20 17 16 21 20 19 18 14 11 11 11 16 16 9 8 8 8 9 9 9 12 14 11 9 8 12 15 14 14 14 14 13 10 8 11 13 11 8 11 12 10 8 7 9 10 11 11 7 5 7 9 10 11 10 8 8 9 10 12 14 14 16 16 15 16
40 41 41 42 43 43 45 33 14 22 36 25 15 19 21 21 20 19 10 3 8 6 10 16 11 12 22 21 16 14 10 12 13 11 13 16 12 8 8 7 6 9 12 13 14 12 12 10 12 16 16 15 14 13 14 11 8 10 14 16 14 13 13 13 13 8 4 6 8 10 6 5 6 11 11 9 9 11 10 10 11 11 13 14 14 15 15 16
41 40 41 42 41 46 39 15 14 34 31 12 15 26 24 21 23 21 8 2 6 6 7 9 7 9 15 15 12 11 8 11 15 15 14 16 16 10 6 6 4 8 12 12 9 6 9 13 13 15 16 17 16 12 14 14 9 7 10 16 19 18 16 15 15 8 3 5 8 9 6 3 5 9 12 12 12 14 13 14 14 11 12 14 14 14 15 15
40 39 41 41 40 43 27 11 25 31 14 9 20 27 24 22 25 20 4 1 5 5 6 5 5 7 10 13 15 12 6 7 11 15 17 16 16 11 8 8 6 8 8 7 7 5 8 14 15 15 15 15 14 11 12 14 10 7 9 14 19 20 19 18 15 8 3 5 9 11 8 4 5 7 11 14 14 14 15 15 15 12 13 16 14 14 15 16
40 39 41 40 41 39 21 18 25 17 10 17 25 27 25 24 23 13 1 1 4 2 4 3 3 4 6 12 18 14 6 6 10 14 19 19 15 10 10 11 9 10 10 7 7 6 9 13 15 16 14 10 10 10 12 13 11 9 10 11 14 17 18 17 13 8 5 4 5 10 10 5 4 6 9 13 14 14 15 16 15 12 14 16 15 14 16 17
40 40 39 40 42 35 20 16 20 17 18 24 26 27 24 22 16 4 1 3 4 1 1 3 2 3 5 12 18 15 9 6 6 10 17 20 17 11 9 11 11 10 13 12 9 7 9 11 14 15 13 9 9 11 13 14 11 9 11 11 10 12 14 14 11 7 6 5 5 10 12 6 4 5 7 9 11 12 13 15 15 13 14 15 15 15 17 17
40 40 40 41 41 35 26 23 24 20 21 23 24 25 22 15 6 2 4 4 3 2 2 2 1 4 7 11 14 15 13 11 6 8 14 15 16 14 7 9 11 9 9 12 12 11 11 10 11 11 10 9 9 11 13 14 12 9 10 10 10 10 8 7 7 6 5 5 5 10 15 11 5 6 8 8 10 12 11 12 14 14 14 14 15 15 16 16
41 41 42 41 41 34 21 18 20 17 18 21 21 21 15 6 2 3 5 3 4 3 4 2 4 8 11 13 12 13 15 13 7 7 10 10 13 13 8 7 8 7 7 8 10 13 14 13 9 7 8 10 10 11 12 13 12 10 7 7 7 6 5 4 4 5 6 6 5 8 11 11 7 6 8 10 12 14 12 12 16 17 16 15 14 14 14 14
42 43 44 40 37 29 16 18 23 22 19 19 17 12 5 1 4 6 4 1 4 6 6 7 9 10 12 14 11 12 14 11 10 9 9 10 9 11 12 9 7 7 8 7 8 10 12 13 11 8 9 11 10 7 8 10 10 9 6 6 6 4 4 5 4 4 6 6 7 7 9 9 6 5 11 14 14 16 15 15 18 21 20 17 15 15 13 13
43 45 43 36 30 26 26 27 27 22 18 17 12 5 1 4 6 7 6 4 4 3 2 4 8 8 12 12 9 11 12 10 11 11 10 13 10 11 15 14 10 8 7 7 8 7 7 10 13 12 8 11 12 6 4 7 9 10 8 6 6 5 5 6 5 4 4 5 8 11 9 7 4 4 12 18 18 18 17 16 18 21 21 19 17 17 14 14
46 43 40 37 31 28 27 25 23 20 17 12 6 2 5 8 4 6 9 8 8 13 13 8 7 8 11 12 10 10 10 10 13 12 11 12 10 9 13 16 16 10 5 6 7 7 8 7 11 13 7 8 14 10 5 5 7 9 8 6 6 5 5 5 4 4 4 4 7 11 9 5 4 6 11 16 18 18 17 16 16 18 20 19 18 18 17 15
44 41 40 37 31 28 22 18 19 19 13 7 3 4 9 8 2 3 6 6 8 11 15 16 14 11 10 10 13 14 10 9 13 13 11 11 11 9 11 14 17 14 7 7 5 7 10 8 8 13 11 9 12 12 9 7 6 6 6 7 8 7 5 3 4 4 3 3 5 6 6 4 5 7 8 10 13 17 18 17 15 14 18 18 17 18 17 14
43 41 38 32 26 25 20 18 18 18 12 5 4 7 8 5 3 4 4 5 7 7 12 16 12 9 9 6 9 15 14 10 12 12 9 11 12 12 11 11 16 17 12 7 4 5 8 7 8 13 15 15 11 12 14 11 5 4 7 9 8 6 5 2 3 4 3 5 5 4 5 3 3 5 10 12 8 14 17 16 14 13 16 17 15 16 15 14
40 34 30 31 27 22 18 16 15 18 11 4 8 9 5 5 8 8 8 10 13 12 11 10 8 7 7 6 7 12 14 11 12 11 8 10 11 13 14 11 15 21 17 10 5 5 6 4 8 14 15 18 14 11 14 14 8 4 6 7 3 3 5 2 2 3 4 5 4 6 7 4 3 3 9 13 7 12 15 14 12 13 16 16 14 15 15 15
34 24 22 29 25 19 13 12 13 14 8 5 11 11 8 7 10 11 12 15 16 14 10 6 6 8 7 6 7 9 12 10 10 10 9 9 8 13 17 12 14 20 22 17 8 5 6 4 7 13 14 16 15 11 11 12 12 8 5 3 4 5 7 4 3 4 5 5 3 6 8 6 5 4 9 14 10 11 15 15 13 15 18 16 14 15 16 16
27 14 12 17 17 24 18 7 12 9 5 7 10 8 8 9 12 14 16 16 15 12 10 7 6 8 10 10 9 9 10 9 11 10 8 8 7 14 18 13 12 18 21 21 11 5 6 4 4 10 12 13 12 9 8 8 10 10 7 6 4 4 6 6 5 4 4 4 3 6 7 5 5 5 10 15 13 12 15 15 14 16 18 17 15 15 16 16
16 6 9 15 14 29 32 14 8 7 5 10 10 7 8 10 11 14 16 16 12 9 9 9 9 10 11 12 12 10 10 10 10 11 8 8 9 13 18 15 13 15 20 22 16 8 6 5 4 6 8 11 9 8 9 8 8 9 8 10 8 4 3 5 6 5 5 4 3 5 5 5 5 5 7 10 12 14 15 16 15 16 19 18 16 17 16 16
11 4 10 20 23 31 31 16 5 6 6 10 11 10 12 11 12 14 16 17 14 9 11 14 13 12 11 12 13 10 9 12 10 9 8 10 9 8 14 17 15 14 15 18 17 10 6 5 4 5 6 7 8 10 14 14 11 10 9 11 10 6 4 4 5 7 7 6 6 5 4 6 6 5 7 8 10 12 13 13 12 14 19 17 15 18 20 18
9 4 13 29 37 33 18 6 5 5 6 9 11 12 12 12 13 14 15 17 15 12 12 13 14 14 12 12 13 13 10 10 12 10 7 10 12 9 10 16 19 18 13 11 15 13 8 4 5 7 7 7 8 11 18 19 16 12 11 11 9 7 6 5 5 5 6 5 5 5 5 5 6 6 7 9 9 10 13 13 11 12 16 15 14 17 19 20
6 8 19 34 38 25 10 5 6 6 7 10 13 15 14 13 12 12 13 14 13 11 10 11 13 13 12 11 13 14 12 10 13 13 11 9 10 11 13 15 16 19 15 9 11 14 9 5 5 6 6 8 10 8 15 21 17 12 11 11 10 8 8 7 5 4 4 5 5 5 5 5 5 6 5 6 6 6 11 16 15 14 13 13 14 16 16 17
6 9 16 28 30 16 6 5 6 6 8 11 14 15 14 13 13 14 15 14 12 11 11 12 13 12 12 13 14 15 13 10 11 13 13 10 8 9 13 18 16 14 13 9 7 10 9 7 6 5 5 6 8 7 8 16 15 9 8 11 12 13 11 9 7 4 4 6 8 6 5 5 6 7 11 11 7 3 4 10 13 12 11 11 12 14 16 16
7 6 7 16 21 11 6 6 7 7 10 12 15 16 15 13 13 14 14 14 12 11 9 10 14 15 13 12 13 15 15 13 11 12 11 10 10 12 11 15 17 13 11 13 12 10 9 8 8 7 8 8 9 7 4 8 10 8 9 12 14 16 15 10 6 6 6 7 8 7 5 6 6 11 18 19 12 8 5 5 9 9 9 10 8 12 16 15
5 5 5 8 10 7 5 7 7 7 8 9 10 12 14 12 10 11 13 12 11 11 10 9 12 12 11 13 14 13 12 13 14 13 12 11 9 9 16 17 13 12 15 17 15 10 7 8 11 13 11 8 8 7 4 5 7 10 13 15 14 15 15 11 6 7 6 4 5 6 6 6 6 10 17 19 16 12 7 6 9 8 8 9 7 10 15 14
3 4 6 6 5 6 7 7 7 6 8 9 6 8 14 14 11 12 12 10 10 12 11 8 9 12 13 15 13 11 13 17 15 13 11 11 13 14 21 23 16 17 23 19 15 9 5 7 13 18 16 12 9 8 9 9 9 12 16 17 16 15 14 11 9 9 6 4 7 8 5 4 7 7 10 13 13 10 7 7 9 8 7 8 8 10 15 16
4 4 6 7 6 7 8 10 11 12 13 12 8 9 15 14 12 11 10 9 10 10 8 7 7 12 15 15 11 10 15 14 11 14 14 14 17 17 18 18 14 17 22 16 14 8 3 5 11 16 17 17 14 12 12 12 11 11 15 18 17 17 17 15 13 10 8 6 9 9 6 6 7 6 6 8 7 7 6 6 7 7 9 9 8 10 13 16
5 5 6 6 6 7 10 13 16 16 15 13 8 8 13 14 13 11 8 9 11 8 7 9 10 13 14 13 10 8 11 11 10 13 15 15 16 13 12 16 14 15 19 13 9 6 4 3 6 10 13 17 18 17 17 15 14 12 13 17 19 18 19 18 14 11 9 9 9 9 9 10 7 6 9 8 7 6 4 2 2 4 7 11 11 10 11 13
5 4 4 4 5 8 10 11 12 12 11 11 8 7 9 12 14 13 10 10 11 9 6 8 12 13 12 11 11 9 9 12 13 14 15 16 15 10 7 8 10 14 18 16 9 3 6 5 5 6 7 10 17 19 19 19 16 14 12 12 16 18 18 18 16 13 10 9 8 9 10 9 6 6 10 11 6 4 2 4 2 1 4 10 12 12 11 11
10 6 3 3 6 7 7 7 8 9 9 8 7 7 10 11 13 15 13 13 13 11 8 8 11 11 10 9 11 12 13 15 15 16 17 15 12 11 9 8 11 15 15 14 12 4 5 5 4 4 2 3 7 13 20 20 17 17 18 14 13 14 13 13 15 14 12 10 9 8 8 7 6 6 8 10 6 3 3 6 6 3 3 8 10 12 13 13
11 4 0 1 5 6 6 7 7 7 7 7 6 8 11 11 13 13 11 10 12 12 10 10 8 6 7 9 11 12 15 17 17 17 16 16 16 15 15 17 17 15 12 12 12 9 5 4 5 4 1 2 5 8 15 18 15 15 16 13 10 8 6 6 9 14 15 14 9 7 7 6 6 7 7 9 9 8 7 6 7 7 7 7 9 11 12 15
Wind_Direction
353 352 352 351 351 356 357 356 355 353 351 348 345 342 339 338 335 335 334 332 330 329 327 326 325 324 324 328 330 327 322 317 312 300 261 263 267 262 259 260 270 227 210 211 201 183 183 207 214 217 224 220 219 239 243 241 212 128 95 146 242 242 217 200 240 282 272 114 149 161 135 122 119 126 127 131 133 138 150 146 139 135 129 136 139 142 144 145
352 351 351 352 355 358 357 355 353 350 348 345 343 341 338 338 335 333 332 330 330 328 327 326 323 323 324 329 332 330 327 318 307 283 269 278 268 253 244 243 256 234 196 198 203 197 188 200 207 210 218 224 221 226 234 233 220 172 130 195 226 233 225 182 187 239 277 255 180 159 137 131 136 143 146 145 141 146 150 132 130 129 127 133 140 146 147 145
351 351 352 354 356 356 354 352 350 347 345 343 342 340 338 337 334 333 331 329 328 326 327 325 323 322 323 329 333 334 329 316 298 269 282 297 254 236 232 236 242 225 206 202 204 206 203 201 201 204 211 224 229 230 225 217 224 182 128 188 233 234 251 235 199 165 223 235 204 152 135 133 145 156 160 152 144 147 141 125 128 130 135 140 144 150 150 151
350 352 354 355 356 354 352 349 347 345 343 342 340 339 338 336 334 332 330 329 327 326 325 324 324 321 323 331 332 335 329 304 270 260 298 317 190 207 213 224 224 216 218 212 210 217 218 210 201 203 209 221 228 237 236 218 209 155 147 187 228 229 231 254 218 132 187 239 187 140 135 135 153 170 159 151 149 149 139 134 138 140 144 146 148 151 152 154
350 352 354 354 354 352 350 347 345 344 342 341 339 338 336 334 333 331 330 328 326 324 323 324 323 320 324 330 330 340 343 302 297 103 64 118 161 176 189 203 207 213 216 212 221 235 235 228 212 207 209 226 231 232 244 228 194 171 193 188 218 229 203 256 228 141 170 230 68 175 155 139 142 171 166 158 164 158 144 141 142 145 148 149 150 153 154 155
351 353 353 353 352 350 348 346 344 342 341 339 338 337 335 334 332 330 329 327 326 323 322 323 322 321 323 329 337 342 333 279 305 10 130 134 146 160 173 179 194 208 208 207 225 242 244 236 225 219 212 222 236 244 258 242 211 207 203 188 216 227 159 218 258 164 144 138 213 193 130 135 140 191 182 168 170 143 140 143 142 145 149 151 151 154 158 157
352 353 352 351 349 347 346 345 343 341 339 338 336 335 333 332 330 329 327 325 325 321 322 322 319 321 322 336 18 200 202 249 271 266 210 179 167 170 177 177 188 192 192 202 218 232 241 234 223 224 227 220 228 243 259 260 250 250 228 200 210 204 158 178 231 197 136 149 179 142 132 163 161 186 120 120 128 125 132 139 140 144 148 152 154 156 160 159
349 349 350 348 346 346 345 343 341 339 337 336 334 333 332 330 328 327 325 324 322 320 322 320 317 319 327 351 340 255 237 248 268 266 236 219 198 189 188 183 191 185 186 200 211 221 232 236 223 215 231 233 232 233 241 253 253 251 246 223 206 192 179 179 202 203 167 158 148 153 179 174 156 149 102 107 115 123 131 136 139 145 149 155 159 159 160 161
345 346 347 346 344 345 343 341 340 337 335 334 332 331 329 328 327 325 324 323 319 318 320 316 315 319 336 349 279 279 245 255 273 264 232 220 212 208 198 191 193 185 190 204 213 224 229 235 226 216 228 239 244 246 247 249 244 243 243 234 208 198 190 178 188 194 198 170 153 167 166 152 148 138 133 124 122 127 131 137 144 147 152 160 164 161 161 164
344 345 346 345 345 343 342 340 338 336 334 332 330 328 326 325 324 323 322 321 317 316 317 312 311 316 334 285 252 256 262 270 263 229 216 208 206 204 199 199 196 188 196 206 212 226 230 238 233 221 233 249 251 251 256 256 259 267 263 258 242 222 195 177 180 188 208 179 157 164 147 145 145 140 149 124 125 130 133 141 148 150 156 163 168 163 163 168
344 344 345 346 344 342 340 339 337 335 333 330 328 325 323 322 321 321 321 318 314 314 313 304 301 307 276 255 236 240 267 285 238 195 191 190 190 193 201 209 202 194 202 208 214 225 231 244 250 241 225 239 262 264 266 267 279 291 295 302 291 278 235 188 182 191 206 172 158 155 141 143 141 160 159 128 131 136 137 145 149 153 158 164 170 162 165 175
342 342 345 345 343 342 339 337 336 334 332 329 327 323 320 320 319 320 319 315 311 311 305 293 290 245 262 257 229 239 259 287 276 248 217 190 178 182 203 215 206 199 206 216 217 220 230 244 252 258 240 217 245 263 279 274 285 295 298 309 298 294 279 200 175 213 247 163 161 146 137 154 154 170 149 134 138 138 139 146 152 157 158 166 169 161 169 180
341 343 344 344 342 340 338 337 335 333 331 329 326 322 318 318 316 318 317 311 308 307 291 275 262 167 250 245 239 254 267 281 285 285 266 221 194 185 200 222 215 204 206 222 227 218 221 233 244 257 261 256 243 265 299 274 274 279 274 270 273 289 284 225 167 202 238 175 162 141 133 171 169 164 146 142 142 139 142 149 154 158 160 169 165 161 174 184
343 344 344 343 342 340 338 336 334 332 331 328 325 321 317 315 314 316 313 306 307 302 263 253 202 152 220 256 266 275 275 269 269 274 269 254 231 201 198 222 232 223 212 218 234 235 226 224 234 254 259 264 274 291 294 275 263 267 271 260 251 282 283 270 219 189 201 191 167 135 121 174 177 159 144 148 146 141 146 150 156 161 161 168 162 162 174 185
344 344 344 343 341 339 338 335 334 332 330 329 324 319 316 314 313 312 305 301 304 272 238 243 182 171 270 267 276 291 281 258 251 249 247 250 248 217 194 207 224 238 233 228 237 251 253 234 224 238 249 256 269 280 280 283 286 267 270 273 244 231 255 272 249 187 189 182 155 131 124 167 171 159 145 153 152 143 148 152 158 163 163 168 163 163 173 184
344 344 344 343 341 340 337 335 333 331 331 329 323 318 315 313 311 304 295 291 285 223 191 188 193 194 289 267 280 301 278 232 235 237 232 236 246 228 197 204 212 225 234 239 240 246 258 255 229 223 227 237 244 249 264 279 283 263 242 245 237 211 224 257 233 176 170 137 140 128 129 156 157 169 152 156 160 148 150 155 160 163 163 168 164 165 172 179
343 343 343 342 341 340 337 334 332 331 332 328 323 319 315 315 308 296 291 263 204 185 181 222 208 189 257 267 298 305 251 223 226 225 222 227 240 235 203 201 212 215 218 227 232 233 243 248 241 225 213 219 216 210 233 241 248 261 242 239 248 235 225 228 185 172 155 135 154 129 126 160 162 176 162 159 165 155 154 158 163 163 162 168 165 168 173 177
341 342 342 342 341 339 337 334 332 332 333 328 323 321 317 319 319 323 75 133 134 168 210 257 263 199 255 249 253 262 241 234 217 204 214 213 221 233 217 205 216 209 207 216 221 221 224 224 226 233 216 210 208 202 210 217 222 240 241 232 240 244 249 237 193 186 160 144 168 145 144 179 170 179 172 161 166 162 161 162 164 164 162 167 166 169 176 177
340 340 341 342 340 339 336 333 331 332 334 328 326 329 326 334 31 94 127 136 126 195 244 232 196 192 286 251 226 249 258 242 212 197 209 198 198 220 221 217 226 208 197 201 202 202 206 214 218 227 226 210 207 211 214 217 221 235 242 232 225 227 244 245 210 179 163 148 168 160 167 188 172 182 175 159 168 168 164 164 165 164 161 168 169 169 176 178
340 339 341 342 339 338 336 333 331 332 335 329 329 338 342 360 18 85 174 195 213 244 267 259 215 225 274 282 271 278 276 239 203 190 200 185 181 201 215 221 223 210 201 198 194 194 198 218 222 217 222 219 212 214 221 228 230 239 249 247 238 227 232 242 207 165 160 154 174 170 176 187 165 172 172 160 169 167 163 167 168 165 163 171 173 170 176 181
339 339 342 342 339 337 334 333 331 332 334 329 327 332 328 350 1 329 318 267 243 241 255 259 245 244 253 265 273 282 295 255 201 197 189 177 176 183 194 214 217 204 198 208 205 191 198 219 226 219 220 226 223 215 217 228 232 237 249 258 255 245 246 246 198 162 165 167 177 170 170 185 166 164 168 164 170 170 167 171 172 169 167 172 175 173 176 180
339 340 342 341 340 336 333 333 331 333 339 338 335 298 296 339 348 329 328 291 267 245 246 256 251 252 247 249 260 266 285 276 245 219 177 168 183 183 171 197 216 205 187 206 219 198 206 221 223 221 218 224 231 224 216 223 232 237 244 254 261 262 270 264 214 164 168 171 173 171 168 184 173 160 163 167 174 174 171 174 174 172 169 171 177 175 173 175
339 341 342 342 341 337 332 332 331 338 349 339 316 282 298 336 347 338 330 293 286 255 233 242 238 245 242 237 249 250 254 254 248 228 180 169 190 189 180 192 201 213 197 199 216 214 214 213 216 225 224 220 228 232 224 222 227 237 242 243 252 256 267 272 236 179 177 171 163 167 167 183 178 162 166 172 173 169 176 179 176 174 174 174 178 176 172 173
339 342 343 342 341 338 333 331 334 351 344 328 304 299 327 345 349 345 336 273 287 265 221 227 222 229 231 222 224 227 234 239 241 231 186 175 193 187 196 206 192 209 216 206 211 224 236 210 201 219 230 224 223 227 228 225 220 227 235 241 247 247 251 259 252 223 184 168 161 156 162 200 183 164 169 172 169 172 183 192 187 178 174 174 177 178 175 174
340 341 341 341 342 339 333 332 343 346 335 324 324 343 351 347 345 344 337 252 277 268 211 217 218 227 224 213 204 204 220 231 232 236 197 183 194 187 195 212 202 207 215 218 215 219 237 228 203 208 219 225 224 222 221 222 227 225 226 234 248 252 251 254 255 250 176 170 173 150 156 237 194 165 169 169 171 179 183 197 207 187 172 173 176 180 180 178
339 340 340 340 341 339 339 339 336 336 329 317 344 348 343 339 337 333 324 250 280 259 191 185 189 208 200 191 190 186 213 233 222 230 224 196 191 198 204 197 209 216 207 218 230 219 219 226 225 214 209 214 222 226 220 217 226 232 217 220 237 252 258 260 260 254 172 176 190 163 153 228 206 176 176 176 180 184 181 193 208 197 176 176 177 181 183 180
337 338 338 338 339 341 341 309 316 329 318 304 334 336 332 332 329 325 317 212 273 223 170 162 166 177 172 168 169 170 202 218 198 216 224 204 190 194 212 197 194 220 212 209 224 220 203 212 227 228 216 209 215 223 219 215 222 235 222 210 220 236 251 261 264 259 215 172 187 187 167 158 205 200 184 179 182 189 186 191 203 199 181 180 179 180 182 181
336 335 336 335 334 336 328 296 307 313 291 311 325 326 326 325 320 318 313 272 293 151 142 171 163 169 171 159 165 184 212 157 168 203 209 208 201 185 205 216 205 206 213 222 220 211 212 213 217 225 228 217 208 212 213 217 225 231 233 224 218 223 235 249 260 264 244 209 195 194 173 155 219 217 187 178 181 191 192 193 200 193 179 181 183 181 180 182
334 334 333 333 330 331 331 303 287 279 298 317 321 321 321 318 314 311 189 271 283 318 140 168 156 183 176 158 173 203 224 198 190 185 188 203 210 201 207 217 223 220 211 223 234 220 223 223 214 217 228 228 210 204 207 217 226 227 234 243 242 232 229 233 243 258 255 242 226 196 179 176 227 208 184 182 186 191 191 193 198 193 183 184 188 185 181 181
334 331 330 332 326 325 329 306 280 279 302 312 316 320 318 309 301 184 224 246 255 257 125 112 162 185 180 169 182 201 210 227 236 169 178 195 200 207 212 199 222 249 226 222 234 235 240 241 226 218 221 225 217 204 204 216 225 223 227 242 255 252 242 234 229 235 252 251 226 199 188 187 215 208 185 184 189 187 183 187 191 191 190 190 189 189 184 181
332 329 327 326 319 317 317 294 290 302 308 313 323 322 313 297 200 214 223 218 272 238 152 179 188 174 185 187 188 194 202 222 233 189 185 186 188 197 202 193 203 235 246 234 230 230 238 244 244 235 221 219 219 209 202 209 221 223 216 223 242 258 267 267 246 214 231 243 222 212 208 202 214 217 194 187 186 184 181 182 185 187 190 191 189 188 184 181
331 328 324 321 316 310 282 269 294 305 308 321 324 313 303 227 222 234 230 273 256 208 180 199 192 178 192 199 196 189 195 212 221 215 189 182 195 193 197 205 182 194 225 231 229 226 228 235 240 246 237 226 221 208 198 205 215 221 217 208 212 230 245 246 249 216 223 239 219 218 229 222 227 208 189 190 187 185 187 185 186 189 189 190 191 191 186 180
329 327 322 318 317 302 280 281 295 299 309 320 308 289 240 245 230 202 218 259 264 285 304 210 201 197 193 201 212 195 194 205 213 221 199 185 200 197 199 208 192 193 211 211 223 229 228 230 230 237 237 219 218 207 188 201 204 210 212 201 189 192 213 227 243 236 223 237 222 219 226 225 244 218 186 192 196 191 189 188 188 190 191 192 192 192 189 184
327 327 324 318 314 302 289 286 285 280 289 297 286 257 223 238 224 175 208 237 277 307 311 295 290 267 216 201 209 203 200 202 203 220 210 187 199 202 197 205 206 206 210 209 215 215 227 229 214 223 223 198 206 208 207 199 197 208 206 200 198 191 205 214 218 228 226 239 231 223 219 192 207 216 191 195 201 194 189 190 191 188 188 191 190 189 188 186
328 329 325 316 307 302 293 281 275 262 253 259 266 237 223 227 238 208 222 231 251 278 289 290 295 285 254 213 202 205 210 207 199 214 219 194 199 204 190 197 207 208 202 208 211 206 225 236 206 212 220 212 199 195 210 222 211 210 197 207 215 195 193 210 213 224 224 238 246 230 218 181 189 220 225 220 203 190 189 191 192 187 182 182 182 183 186 185
330 332 327 312 302 298 282 266 260 237 221 236 240 231 230 236 260 261 277 273 260 290 309 297 283 270 267 240 208 204 204 209 199 204 221 205 203 209 200 192 197 206 209 201 202 204 216 230 209 205 215 222 209 183 197 215 211 190 201 217 216 190 192 213 236 253 239 230 238 231 234 217 191 230 252 252 207 178 188 189 187 180 170 172 175 178 182 182
329 329 318 301 301 303 282 266 244 211 205 233 228 236 260 265 263 271 288 295 300 318 326 308 293 286 265 247 235 205 193 200 202 201 208 205 205 205 206 201 190 202 213 210 220 222 213 231 216 206 208 216 218 199 199 211 208 186 204 207 193 224 233 205 215 243 236 236 234 231 239 224 192 215 238 243 211 167 182 184 176 168 160 165 174 177 179 179
319 313 298 289 304 325 302 259 227 201 196 238 241 252 269 266 268 279 291 299 307 315 316 299 294 303 288 269 267 227 198 190 198 208 206 206 211 196 200 211 195 197 207 212 226 223 212 245 228 215 208 202 210 214 206 209 209 212 231 189 160 222 227 207 217 211 210 234 242 241 244 218 202 201 206 223 213 167 176 181 173 168 164 167 173 178 180 178
313 308 288 283 320 348 338 258 214 208 207 234 245 255 262 266 268 273 285 291 295 301 296 282 275 289 293 290 288 267 239 213 199 207 212 205 202 191 194 205 201 195 198 205 219 224 210 236 241 229 212 187 191 211 205 196 198 211 242 243 223 220 197 193 215 206 188 218 228 236 247 235 222 204 191 207 208 183 180 182 179 173 171 172 172 177 180 178
317 319 279 281 326 348 343 326 232 215 226 241 248 257 266 273 272 269 272 275 279 280 276 280 280 281 288 292 294 291 283 267 224 206 213 204 194 192 192 196 205 201 192 196 209 218 213 221 246 258 228 193 189 198 190 178 183 195 215 230 232 233 203 189 201 207 190 191 222 233 241 246 245 224 203 205 206 202 192 182 181 178 176 178 176 177 181 182
323 317 272 289 321 339 339 332 256 221 239 248 249 258 267 272 276 276 277 278 279 277 279 283 277 273 281 288 295 298 297 296 271 232 213 202 201 202 193 191 198 203 196 194 199 206 210 208 230 265 251 219 203 186 180 180 186 189 199 221 226 218 219 214 213 215 200 195 216 220 233 254 253 238 234 228 211 205 198 186 181 178 178 181 181 180 181 184
306 279 275 293 311 324 330 312 268 255 247 248 251 259 264 264 264 268 275 277 275 274 279 280 274 274 274 270 281 286 280 292 290 276 251 219 214 212 201 193 191 197 206 203 194 195 200 196 215 244 255 252 231 190 178 181 189 192 195 212 222 215 208 215 221 210 203 212 219 219 238 253 251 240 238 242 227 198 186 182 177 178 181 179 181 184 183 185
286 287 289 290 297 306 307 279 274 259 246 251 255 258 262 267 269 273 276 273 272 273 271 271 272 273 275 272 276 280 276 278 279 277 283 270 234 212 209 203 193 194 201 210 194 184 189 198 202 229 262 277 271 226 183 180 186 197 199 198 210 221 215 219 228 194 189 211 207 224 245 229 235 255 256 259 252 203 182 182 179 181 184 176 174 182 185 185
295 291 287 290 290 285 268 268 265 257 263 263 263 267 270 274 273 271 270 268 270 272 266 270 272 266 273 279 273 273 275 274 277 278 282 290 294 275 236 214 209 205 195 197 190 174 185 196 178 191 232 253 271 265 200 185 186 195 199 190 199 215 218 225 236 218 214 223 206 204 236 224 212 241 263 277 290 289 192 180 175 177 187 189 175 172 180 183
302 287 272 294 297 283 249 254 258 262 270 273 274 273 267 262 260 268 280 284 281 282 283 285 284 277 281 294 292 284 276 265 269 279 283 287 297 303 280 232 220 218 203 198 190 177 185 190 178 189 206 210 226 239 204 185 189 192 193 191 195 207 214 218 227 227 228 233 223 205 220 242 206 205 238 259 270 276 270 196 176 170 179 195 179 159 173 180
303 293 287 304 306 301 288 282 281 279 283 292 292 285 281 280 281 296 310 308 299 310 324 327 324 320 330 346 336 314 304 301 290 275 273 284 284 300 318 307 279 262 248 221 195 183 187 186 190 197 201 206 219 228 214 189 193 190 189 195 198 204 212 208 205 227 218 205 241 230 199 231 232 202 220 241 247 248 250 204 184 168 164 181 170 158 170 174
282 283 297 316 320 315 312 312 324 333 321 315 313 304 304 306 309 310 310 304 308 327 330 332 358 4 0 356 342 320 333 340 329 312 305 312 322 328 329 324 313 295 280 246 198 188 204 189 193 199 201 207 216 231 232 226 218 197 185 192 201 206 215 216 212 220 204 185 250 250 191 207 255 235 218 232 245 242 219 197 189 163 149 165 164 165 172 170
277 277 295 305 301 300 309 313 318 321 315 308 301 297 298 297 296 300 304 303 307 325 327 311 346 5 355 351 344 326 337 349 345 343 347 343 338 338 331 323 320 319 305 263 200 178 187 189 191 196 203 211 220 235 238 238 243 222 192 188 196 203 211 221 227 215 189 200 237 236 207 214 244 255 232 221 231 233 209 204 209 177 146 142 148 161 168 168
279 277 293 306 298 293 300 303 304 306 306 305 302 295 292 290 287 285 292 302 299 306 318 309 327 350 349 347 348 334 335 339 333 338 344 335 329 333 327 316 320 343 335 295 225 169 143 185 192 195 203 208 216 232 243 247 252 247 214 193 194 203 207 214 230 230 213 221 231 219 216 223 220 239 258 243 207 196 176 141 232 221 150 138 147 155 163 169
271 275 297 317 300 290 296 299 300 301 301 301 298 294 301 307 309 305 297 292 291 295 313 311 313 324 331 335 334 321 318 326 322 322 326 322 323 329 323 306 314 333 331 314 290 190 168 197 206 205 214 207 206 217 234 246 252 256 251 219 200 201 203 204 215 228 235 239 234 218 223 241 229 213 248 256 213 165 138 117 131 272 121 133 150 156 160 169
263 271 296 307 290 293 304 304 303 301 295 297 301 311 322 326 322 320 309 293 291 300 315 311 305 311 319 323 321 313 313 316 311 308 309 303 298 300 291 282 301 314 313 310 310 285 192 186 178 178 230 233 209 213 222 232 246 254 255 248 222 205 203 204 201 205 218 228 234 228 223 247 251 212 233 256 239 201 201 165 160 203 170 148 158 159 159 167
271 277 130 269 283 294 299 293 293 291 282 284 291 297 309 317 318 321 318 306 307 313 312 309 316 332 323 314 317 316 313 311 303 299 300 291 281 278 274 273 281 286 284 293 303 292 240 171 136 129 145 259 278 254 224 215 227 243 244 247 250 238 234 233 207 197 203 210 217 222 215 217 217 198 211 237 243 249 245 197 177 199 202 185 183 181 177 177